www.pogodaiklimat.ru

Погода и климат >> Архив погоды >> Россия >> Пермский край >> Лысьва


ПОГОДА в Лысьве

  • Прогноз погоды в Лысьве
  • Монитор погоды в Лысьве
  • Климат города

АРХИВ ПОГОДЫ в Лысьве

Время (UTC), дата Ветер
(напр.,м/с)
 
Видим.   Явления Облачность Т
(С)
Тd
(С)
f
(%)
Тe
(С)
Тes
(С)
Комфортность P
(гПа)
Po
(гПа)
Тmin
(С)
Tmax
(С)
R
(мм)
R24
(мм)
S
(см)
09 19.06 СЗ 4 10 км дождь 10/10 600 м
[Sc]
+12.2 +11.0 92 +10 +10 994.7 968.3
12 19.06 СЗ 3
{12}
10 км дождь 10/10 600 м
[Sc]
+11.2 +9.9 92 +9 +9 996.3 969.7
15 19.06 СЗ 3 20 км в посл. час дождь 10/9 600 м
[Sc Ac und]
+11.8 +9.2 84 +10 +10 995.7 969.2 +13.8 14
18 19.06 З 3 10 км слабый дождь 10/10 600 м
[Sc]
+11.3 +10.1 92 +9 +9 995.7 969.2
21 19.06 З 3 10 км слабый дождь 10/10 600 м
[Sc]
+11.4 +9.7 89 +10 +10 995.0 968.5
00 20.06 СВ 1 10 км в посл. час дождь 10/10 600 м
[Sc]
+10.8 +9.8 94 +10 +10 995.1 968.5
03 20.06 Ю 2 20 км 10/8 600 м
[Sc Ac und]
+12.7 +11.0 89 +12 +12 994.7 968.3 +10.8 10
06 20.06 Ю 2 50 км 10/8 600 м
[Sc Ac und]
+17.5 +13.1 75 +18 +19 994.0 968.1
09 20.06 З 4 50 км 8/8 300 м
[Cb cap Ci fib]
+21.6 +11.3 52 +24 +26 комфорт 993.0 967.4
12 20.06 СВ 1 50 км {гроза} 8/5 300 м
[Cb cap Ci fib]
+21.9 +10.5 48 +24 +28 комфорт 992.6 967.1
15 20.06 З 2 20 км в посл. час гроза {ливн. осадки} 6/5 300 м
[Cb cap Ci fib]
+20.5 +8.9 47 +22 +23 комфорт 993.2 967.5 +23.6
18 20.06 В 1 20 км в посл. час ливневой дождь {гроза} 8/8 300 м
[Cb cap Ac As]
+15.8 +12.6 81 +16 +16 994.3 968.2
21 20.06 Ю 2 20 км 9/6 600 м
[Sc Ac As]
+13.8 +12.3 91 +13 +13 994.3 968.0
00 21.06 Ю 1 20 км 6/0 2000 м
[Ac As]
+13.4 +12.2 92 +14 +14 994.6 968.3
03 21.06 ЮЗ 1 20 км 10/10 600 м
[Sc]
+15.1 +13.1 88 +16 +16 995.2 969.0 +13.4
06 21.06 СЗ 2 50 км 9/8 600 м
[Cu Sc Ac trans]
+17.5 +12.5 72 +18 +20 996.2 970.2
09 21.06 З 4 50 км в посл. час ливневой дождь ясно +17.2 +11.7 70 +17 +27 997.7 971.6
12 21.06 ЮЗ 2 50 км {ливн. осадки} 6/4 600 м
[Cu med, cong Ac cast]
+18.7 +11.7 64 +20 +24 998.6 972.6
15 21.06 ЮЗ 1 50 км 6/3 600 м
[Cu med, cong Ac cast Ci fib]
+20.2 +10.6 54 +23 +24 комфорт 998.8 973.0 +20.7
18 21.06 Ю 2 50 км 6/3 600 м
[Sc Ci]
+15.2 +9.4 68 +15 +15 999.9 973.6
21 21.06 Ю 2 50 км 10/10 600 м
[Sc]
+15.1 +9.0 67 +15 +15 1000.2 973.8
00 22.06 Ю 3 50 км 10/10 600 м
[Sc]
+14.7 +9.1 69 +14 +14 999.2 972.9
03 22.06 Ю 2 50 км 10/10 600 м
[Sc]
+15.4 +9.9 70 +15 +15 999.0 972.7 +14.4
06 22.06 Ю 4 50 км 10/10 600 м
[Sc]
+16.9 +12.2 74 +16 +16 999.4 973.3
09 22.06 Ю 3 20 км 8/6 600 м
[Cu Sc Ci sp]
+19.6 +13.1 66 +21 +26 комфорт 999.2 973.4
12 22.06 З 4
{11}
2000 м гроза, ливневой дождь 10/10 300 м
[Cb cap]
+14.3 +11.6 84 +13 +13 1000.5 974.1
15 22.06 Ю 3 4000 м ливневой дождь {гроза} 10/10 300 м
[Cb cap]
+15.9 +13.4 85 +15 +15 1000.4 974.2 +22.1 7
18 22.06 Ю 2 20 км {гроза, ливн. осадки} 10/10 600 м
[Sc diur, vesp]
+15.4 +12.8 84 +15 +15 1000.2 973.9
21 22.06 ЮВ 1 20 км {ливн. осадки} 10/10 600 м
[Sc diur, vesp]
+14.5 +12.6 88 +15 +15 1000.0 973.6
00 23.06 ЮЗ 2 20 км {ливн. осадки} 8/3 600 м
[Sc Ac As Ci sp]
+12.9 +11.4 91 +12 +12 1000.9 974.4
03 23.06 ЮЗ 2 50 км 8/4 600 м
[Cu med, cong Ci sp]
+13.6 +10.2 80 +13 +15 1002.7 976.2 +11.8
06 23.06 ЮЗ 1 50 км 8/8 600 м
[Cu med, cong]
+15.3 +8.9 66 +16 +19 1003.4 977.0
09 23.06 ЮЗ 3 50 км 8/8 600 м
[Cu med, cong]
+18.4 +6.1 44 +19 +21 1004.0 977.8
12 23.06 З 4 50 км 8/5 300 м
[Cb cap Ac As]
+17.3 +6.2 48 +17 +18 1004.5 978.2
15 23.06 СЗ 1 50 км 6/6 300 м
[Cb cap]
+16.8 +6.9 52 +18 +18 1004.6 978.3 +19.2
18 23.06 В 1 20 км 6/6 300 м
[Cb cap]
+12.7 +8.2 74 +13 +13 1005.9 979.2
21 23.06 ЮВ 1 20 км 4/4 300 м
[Cb cap]
+9.8 +7.6 86 +9 +9 1006.0 979.0
00 24.06 Ю 2 50 км 4/3 600 м
[Cu med, cong Ac As]
+9.5 +7.1 85 +8 +8 1006.0 979.0
03 24.06 Ю 2 50 км 3/0 2000 м
[Ac As]
+12.3 +7.9 74 +11 +15 1005.9 979.1 +9.5
06 24.06 ЮЗ 3 50 км 8/3 600 м
[Cu med, cong Ac cast]
+18.0 +6.9 48 +18 +22 1004.9 978.7
09 24.06 ЮЗ 4
{11}
50 км 9/6 300 м
[Cb calv Ac und]
+17.3 +7.1 51 +17 +19 1004.2 978.0
12 24.06 З 2 50 км {ливн. осадки} 9/8 300 м
[Cb calv Ac und]
+15.1 +8.1 63 +15 +16 1004.4 978.0
15 24.06 З 1 50 км {ливн. осадки} 6/3 600 м
[Cu hum Ac lent]
+16.0 +8.1 59 +17 +17 1004.7 978.4 +19.2
18 24.06 ЮВ 1 50 км {ливн. осадки} 3/0 2000 м
[Ac trans]
+11.3 +7.8 79 +11 +11 1005.4 978.6
21 24.06 ЮВ 1 20 км 3/0 2000 м
[Ac trans]
+9.1 +7.1 87 +8 +8 1005.0 978.0
00 25.06 С 1 50 км 10/0 2000 м
[Ac As]
+9.5 +7.9 90 +9 +9 1003.5 976.6
03 25.06 штиль 0 10 км дождь 10/10 600 м
[Sc]
+10.9 +9.7 92 +10 +10 1002.3 975.5 +8.6 2
06 25.06 В 4 10 км дождь 10/10 600 м
[Sc]
+10.9 +9.9 94 +8 +8 998.3 971.7
09 25.06 В 3
{12}
50 км в посл. час дождь 10/10 600 м
[Sc]
+12.0 +10.5 91 +10 +10 996.2 969.7
12 25.06 СВ 2 10 км дождь 10/10 600 м
[Sc]
+13.2 +12.2 94 +12 +12 994.5 968.2
15 25.06 С 1 20 км {дождь} 10/8 600 м
[Sc Ac As]
+14.3 +12.8 91 +15 +15 994.9 968.7 +14.8 13
18 25.06 СЗ 3 10 км слабый дождь 10/10 600 м
[Sc]
+11.8 +10.8 94 +10 +10 996.8 970.3
21 25.06 СЗ 3 10 км слабый дождь 10/10 600 м
[Sc]
+10.8 +9.9 94 +9 +9 998.7 972.0
00 26.06 СЗ 3
{11}
50 км {дождь} 10/10 600 м
[Sc]
+10.3 +8.4 88 +8 +8 1000.9 974.1
03 26.06 З 4 50 км 8/8 600 м
[Sc Ac trans]
+10.6 +7.5 81 +8 +9 1002.5 975.7 +10.3 2
06 26.06 З 5
{12}
50 км 8/8 600 м
[Sc]
+13.3 +6.7 64 +11 +13 1003.4 976.8

 

Местоположение метеостанции Лысьва (Пермский край, Россия): широта 58.12 долгота 57.78 высота над уровнем моря 226 м.

В архиве по умолчанию представлена погода в Лысьве за последнюю неделю. Архивные данные за месяц целиком и за предыдущие месяцы, начиная с января 2011 года, Вы можете получить, выбрав интересующий диапазон дат из раскрывающегося списка и нажав кнопку "Ввод!".

Внимание! Время в таблицах - всемирное. Для получения местного времени необходимо прибавить поправку, которая в Лысьве равна 5 ч.

Смотрите также архив погоды в соседних городах и на ближайших метеорологических станциях:

Погода в Перми (Пермский край, Россия) (67 км)
Погода в Бисере (Пермский край, Россия) (77 км)
Погода в Добрянке (Пермский край, Россия) (86 км)
Погода в Губахе (Пермский край, Россия) (88 км)
Погода в Шамарах (Свердловская область, Россия) (90 км)
Погода в Кунгуре (Пермский край, Россия) (93 км)
Погода в Висиме (Свердловская область, Россия) (115 км)
Погода в Чермозе (Пермский край, Россия) (117 км)
Погода в Кушве (Свердловская область, Россия) (118 км)
Погода в Нижнем Тагиле (Свердловская область, Россия) (138 км)

Пояснения к столбцам:

Ветер - указаны скорость ветра в м/с - средняя за 10 мин, порывы в срок и между сроками (в фигурных скобках) и направление, откуда дует ветер: С - северный, СВ - северо-восточный, В - восточный, ЮВ - юго-восточный, Ю - южный, ЮЗ - юго-западный, З - западный, СЗ - северо-западный.
Видимость - горизонтальная дальность видимости в метрах или километрах. При видимости от 1 до 10 км при отсутствии осадков обычно наблюдается дымка, при ухудшении видимости до 1 км и менее - туман. В сухую погоду видимость может ухудшаться дымом, пылью или мглою.
Явления - указаны атмосферные явления, наблюдавшиеся в срок или в последний час перед сроком; фигурными скобками обозначены явления, наблюдавшиеся между сроками (за 1-3 часа до срока); квадратными скобками обозначены град или гололедные отложения с указанием их диаметра в мм.
Облачность - указаны через наклонную черту общая и нижняя облачность в баллах и высота нижней границы облаков в метрах; квадратными скобками обозначены формы облаков: Ci - перистые, Cs - перисто-слоистые, Cc - перисто-кучевые, Ac - высококучевые, As - высокослоистые, Sc - слоисто-кучевые, Ns - слоисто-дождевые, Cu - кучевые, Cb - кучево-дождевые. Подробнее классификацию облаков см. в Атласе облаков (PDF).
T - Температура воздуха - температура, измеренная на высоте 2 м над землей.
Td - Температура точки росы - температура, при понижении до которой содержащийся в воздухе водяной пар достигнет насыщения.
f - Относительная влажность воздуха - влажноcть воздуха, измеренная на высоте 2 м над землей.
Te - Эффективная температура - температура, которую ощущает одетый по сезону человек в тени. Характеристика душности погоды. При расчете учитывается влияние влажности воздуха и скорости ветра на теплоощущения человека.
Tes - Эффективная температура на солнце - температура, которую ощущает человек, с поправкой на солнечный нагрев. Характеристика знойности погоды. Зависит от высоты солнца над горизонтом, облачности и скорости ветра. Ночью, в пасмурную погоду, а также при ветре 12 м/с и более поправка равна нулю.
P - Атмосферное давление - приведенное к уровню моря атмосферное давление.
Po - Атмосферное давление - измеренное на уровне метеостанции атмосферное давление.
Tmin - Минимальная температура - минимум температуры воздуха на высоте 2 м над землей.
Tmax - Максимальная температура - максимум температуры воздуха на высоте 2 м над землей.
R - Количество осадков - Количество выпавших осадков за период времени, мм. При наведении курсора мыши на число - период времени, за который выпало указанное количество осадков.
R24 - Количество осадков - Количество выпавших осадков за 24 часа, мм.
S - Снежный покров - Высота снежного покрова, см. При наведении курсора мыши на число - состояние снежного покрова и степень покрытия местности в баллах.